Location: Elstree
(51.6403°N, 0.2969°W)
Time: 18:55:41
(UTC+00:00)

CZ-2C R/B - Pass Details

Date: 03 March 2021
Orbit: 783 x 871 km, 98.2° (Epoch: 17 April)

Event Time Altitude Azimuth Distance (km) Brightness Sun altitude
Rises 19:39:50 0° 13° (NNE) 3,444 5.9 -18.5°
Reaches altitude 10° 19:42:15 10° 11° (N) 2,493 5.2 -18.8°
Maximum altitude 19:47:45 70° 289° (WNW) 893 3.0 -19.7°
Drops below altitude 10° 19:53:05 10° 207° (SSW) 2,419 5.2 -20.5°
Sets 19:55:24 0° 205° (SSW) 3,335 5.9 -20.8°
